When you browse on this site, cookies collect data to enhance your experience and personalize the content and advertising you see.
Visit our Privacy Policy to learn more. By continuing to use the site, you agree to this use of cookies and data.
  • In France
  • List of Countries
  • For 7 days
  • Water Temperature
  • Satellite Maps
  • Weather Map
  • Weather Widgets
  • user-avatar
    Login

    Hourly Weather Pamporovo

    Today, 23 March, Saturday

    Time Temperature Precipitation Wind Pressure Humidity
    00:00 +1°C° 0 mm 1 mps 627 mmHg 76%
    01:00 +1°C° 0 mm 1 mps 627 mmHg 78%
    02:00 0°C° 0 mm 1 mps 627 mmHg 78%
    03:00 0°C° 0 mm 1 mps 627 mmHg 80%
    04:00 0°C° 0 mm 1 mps 626 mmHg 83%
    05:00 0°C° 0 mm 1 mps 626 mmHg 85%
    06:00 +1°C° 0 mm 1 mps 627 mmHg 80%
    07:00 +2°C° 0 mm 1 mps 627 mmHg 75%
    08:00 +4°C° 0 mm 1 mps 628 mmHg 68%
    09:00 +5°C° 0 mm 1 mps 628 mmHg 61%
    10:00 +6°C° 0 mm 2 mps 629 mmHg 55%
    11:00 +8°C° 0 mm 2 mps 629 mmHg 49%
    12:00 +8°C° 0 mm 2 mps 629 mmHg 47%
    13:00 +9°C° 0 mm 2 mps 629 mmHg 45%
    14:00 +12°C° 0 mm 2 mps 629 mmHg 40%
    15:00 +10°C° 0 mm 2 mps 629 mmHg 42%
    16:00 +9°C° 0 mm 2 mps 628 mmHg 44%
    17:00 +8°C° 0 mm 2 mps 628 mmHg 46%
    18:00 +6°C° 0 mm 2 mps 627 mmHg 57%
    19:00 +5°C° 0 mm 1 mps 626 mmHg 68%
    20:00 +3°C° 0 mm 1 mps 626 mmHg 80%
    21:00 +2°C° 0 mm 1 mps 626 mmHg 83%
    22:00 +2°C° 0 mm 1 mps 626 mmHg 85%
    23:00 +1°C° 0 mm 1 mps 626 mmHg 88%

    Tomorrow, 24 March, Sunday

    Time Temperature Precipitation Wind Pressure Humidity
    00:00 +1°C° 0 mm 1 mps 626 mmHg 88%
    01:00 +1°C° 0 mm 1 mps 626 mmHg 88%
    02:00 0°C° 0 mm 1 mps 626 mmHg 88%
    03:00 0°C° 0 mm 1 mps 626 mmHg 89%
    04:00 -1°C° 0 mm 1 mps 625 mmHg 89%
    05:00 -2°C° 0 mm 1 mps 625 mmHg 89%
    06:00 -1°C° 0 mm 1 mps 626 mmHg 82%
    07:00 +1°C° 0 mm 1 mps 626 mmHg 75%
    08:00 +2°C° 0 mm 1 mps 627 mmHg 68%
    09:00 +2°C° 0 mm 2 mps 627 mmHg 61%
    10:00 +4°C° 0 mm 2 mps 628 mmHg 53%
    11:00 +5°C° 0 mm 3 mps 628 mmHg 46%
    12:00 +7°C° 0 mm 3 mps 628 mmHg 43%
    13:00 +7°C° 0 mm 3 mps 628 mmHg 41%
    14:00 +8°C° 0 mm 3 mps 628 mmHg 38%
    15:00 +8°C° 0 mm 3 mps 627 mmHg 41%
    16:00 +7°C° 0 mm 2 mps 627 mmHg 43%
    17:00 +7°C° 0 mm 2 mps 626 mmHg 46%
    18:00 +5°C° 0 mm 2 mps 626 mmHg 54%
    19:00 +4°C° 0 mm 1 mps 625 mmHg 62%
    20:00 +2°C° 0 mm 1 mps 624 mmHg 70%
    21:00 +2°C° 0 mm 1 mps 624 mmHg 70%
    22:00 +1°C° 0 mm 1 mps 624 mmHg 70%
    23:00 +1°C° 0 mm 1 mps 624 mmHg 69%

    Day after tomorrow, 25 March, Monday

    Time Temperature Precipitation Wind Pressure Humidity
    00:00 +1°C° 0 mm 1 mps 624 mmHg 69%
    01:00 +1°C° 0 mm 1 mps 624 mmHg 68%
    02:00 0°C° 0 mm 1 mps 624 mmHg 68%
    03:00 0°C° 0 mm 1 mps 623 mmHg 68%
    04:00 0°C° 0 mm 1 mps 623 mmHg 68%
    05:00 0°C° 0 mm 1 mps 622 mmHg 68%
    06:00 +1°C° 0 mm 1 mps 623 mmHg 64%
    07:00 +3°C° 0 mm 1 mps 623 mmHg 61%
    08:00 +3°C° 0 mm 0 mps 624 mmHg 57%
    09:00 +7°C° 0 mm 1 mps 624 mmHg 51%
    10:00 +9°C° 0 mm 1 mps 625 mmHg 46%
    11:00 +11°C° 0 mm 1 mps 626 mmHg 40%
    12:00 +12°C° 0 mm 1 mps 625 mmHg 41%
    13:00 +12°C° 0 mm 1 mps 625 mmHg 41%
    14:00 +13°C° 0 mm 2 mps 625 mmHg 42%
    15:00 +11°C° 0 mm 1 mps 624 mmHg 48%
    16:00 +10°C° 0 mm 1 mps 623 mmHg 54%
    17:00 +9°C° 0 mm 1 mps 622 mmHg 61%
    18:00 +7°C° 0 mm 1 mps 621 mmHg 70%
    19:00 +6°C° 0 mm 1 mps 620 mmHg 80%
    20:00 +4°C° 0 mm 1 mps 620 mmHg 90%
    21:00 +4°C° 0 mm 1 mps 620 mmHg 91%
    22:00 +4°C° 0 mm 1 mps 620 mmHg 92%
    23:00 +4°C° 0 mm 1 mps 620 mmHg 94%

    26 March, Tuesday

    Time Temperature Precipitation Wind Pressure Humidity
    00:00 +3°C° 0.1 mm 1 mps 620 mmHg 93%
    01:00 +3°C° 0.1 mm 1 mps 620 mmHg 93%
    02:00 +2°C° 0.1 mm 0 mps 619 mmHg 92%
    03:00 +2°C° 0.1 mm 0 mps 619 mmHg 92%
    04:00 +2°C° 0.1 mm 0 mps 619 mmHg 92%
    05:00 +1°C° 0.1 mm 0 mps 619 mmHg 92%
    06:00 +3°C° 0.1 mm 0 mps 620 mmHg 88%
    07:00 +4°C° 0.1 mm 0 mps 621 mmHg 84%
    08:00 +5°C° 0.1 mm 0 mps 621 mmHg 80%
    09:00 +7°C° 0.6 mm 1 mps 622 mmHg 76%
    10:00 +7°C° 0.6 mm 1 mps 622 mmHg 72%
    11:00 +7°C° 0.6 mm 2 mps 623 mmHg 68%
    12:00 +6°C° 1.1 mm 2 mps 623 mmHg 70%
    13:00 +6°C° 1.1 mm 2 mps 622 mmHg 73%
    14:00 +5°C° 1.1 mm 2 mps 622 mmHg 75%
    15:00 +4°C° 1.2 mm 2 mps 622 mmHg 79%
    16:00 +4°C° 1.2 mm 2 mps 622 mmHg 82%
    17:00 +3°C° 1.2 mm 2 mps 622 mmHg 85%
    18:00 +2°C° 0.5 mm 2 mps 622 mmHg 87%
    19:00 +2°C° 0.5 mm 2 mps 622 mmHg 88%
    20:00 +1°C° 0.5 mm 2 mps 623 mmHg 90%
    21:00 +1°C° 0.4 mm 2 mps 623 mmHg 90%
    22:00 -1°C° 0.4 mm 2 mps 623 mmHg 89%
    23:00 -1°C° 0.4 mm 2 mps 624 mmHg 89%

    27 March, Wednesday

    Time Temperature Precipitation Wind Pressure Humidity
    00:00 -1°C° 0.6 mm 2 mps 624 mmHg 89%
    01:00 -2°C° 0.6 mm 2 mps 624 mmHg 89%
    02:00 -2°C° 0.6 mm 2 mps 624 mmHg 88%
    03:00 -3°C° 1.1 mm 2 mps 624 mmHg 90%
    04:00 -3°C° 1.1 mm 2 mps 624 mmHg 92%
    05:00 -3°C° 1.1 mm 2 mps 624 mmHg 93%
    06:00 -1°C° 0.7 mm 1 mps 625 mmHg 93%
    07:00 -1°C° 0.7 mm 1 mps 625 mmHg 93%
    08:00 -1°C° 0.7 mm 1 mps 625 mmHg 93%
    09:00 0°C° 0.4 mm 1 mps 626 mmHg 91%
    10:00 0°C° 0.4 mm 1 mps 626 mmHg 89%
    11:00 +1°C° 0.4 mm 1 mps 627 mmHg 88%
    12:00 +1°C° 0.5 mm 1 mps 627 mmHg 88%
    13:00 -1°C° 0.5 mm 2 mps 627 mmHg 87%
    14:00 -1°C° 0.5 mm 2 mps 627 mmHg 87%
    15:00 -1°C° 0.5 mm 2 mps 627 mmHg 88%
    16:00 +1°C° 0.5 mm 1 mps 626 mmHg 89%
    17:00 +1°C° 0.5 mm 1 mps 626 mmHg 90%
    18:00 0°C° 0.4 mm 1 mps 626 mmHg 91%
    19:00 0°C° 0.4 mm 1 mps 627 mmHg 92%
    20:00 -1°C° 0.4 mm 1 mps 627 mmHg 93%
    21:00 -1°C° 0.2 mm 1 mps 627 mmHg 93%
    22:00 -1°C° 0.2 mm 1 mps 627 mmHg 93%
    23:00 -2°C° 0.2 mm 1 mps 627 mmHg 93%

    28 March, Thursday

    Time Temperature Precipitation Wind Pressure Humidity
    00:00 -2°C° 0.1 mm 1 mps 627 mmHg 92%
    01:00 -2°C° 0.1 mm 1 mps 627 mmHg 91%
    02:00 -3°C° 0.1 mm 1 mps 626 mmHg 91%
    03:00 -4°C° 0 mm 1 mps 626 mmHg 89%
    04:00 -4°C° 0 mm 1 mps 626 mmHg 88%
    05:00 -6°C° 0 mm 1 mps 626 mmHg 87%
    06:00 -4°C° 0 mm 1 mps 626 mmHg 84%
    07:00 -5°C° 0 mm 2 mps 627 mmHg 80%
    08:00 -4°C° 0 mm 2 mps 627 mmHg 77%
    09:00 -3°C° 0 mm 2 mps 628 mmHg 76%
    10:00 -2°C° 0 mm 2 mps 628 mmHg 74%
    11:00 -1°C° 0 mm 3 mps 629 mmHg 72%
    12:00 -1°C° 0 mm 3 mps 628 mmHg 71%
    13:00 0°C° 0 mm 3 mps 628 mmHg 70%
    14:00 -1°C° 0 mm 4 mps 628 mmHg 69%
    15:00 -1°C° 0 mm 4 mps 628 mmHg 71%
    16:00 -2°C° 0 mm 4 mps 628 mmHg 73%
    17:00 -2°C° 0 mm 4 mps 627 mmHg 74%
    18:00 -3°C° 0 mm 4 mps 627 mmHg 78%
    19:00 -5°C° 0 mm 3 mps 627 mmHg 82%
    20:00 -6°C° 0 mm 3 mps 627 mmHg 85%
    21:00 -6°C° 0 mm 2 mps 626 mmHg 87%
    22:00 -7°C° 0 mm 2 mps 626 mmHg 89%
    23:00 -8°C° 0 mm 2 mps 626 mmHg 90%
    Show more